Location: *
(51.1248°S, 108.4023°W)
Time: 05:04:00
(UTC+00:00)

Cosmos 2084 - Pass Details

Date: 15 June 2021
Orbit: 537 x 644 km, 62.8° (Epoch: 31 July)

Event Time Altitude Azimuth Distance (km) Brightness Sun altitude
Exits shadow 14:15:43 12° 241° (WSW) 1,808 5.3 -8.9°
Maximum altitude 14:19:17 33° 303° (WNW) 982 4.4 -8.4°
Drops below altitude 10° 14:23:01 10° 7° (N) 1,850 6.5 -7.9°
Sets 14:25:21 0° 16° (NNE) 2,724 7.6 -7.6°
